Location: Pedholt
(56.0260°N, 10.2097°E)
Time: 23:13:42
(UTC+00:00)

A-11 Canister half - Pass Details

Date: 31 July 2021
Orbit: 1515 x 1685 km, 47.2° (Epoch: 19 September)

Event Time Altitude Azimuth Distance (km) Brightness Sun altitude
Rises 15:12:13 0° 191° (SSW) 4,778 11.9 33.3°
Reaches altitude 10° 15:16:19 10° 176° (S) 3,827 11.3 32.8°
Maximum altitude 15:22:51 21° 134° (SE) 3,115 10.5 31.9°
Drops below altitude 10° 15:29:31 10° 91° (E) 3,920 10.7 31.0°
Sets 15:33:45 0° 77° (ENE) 4,929 11.1 30.4°
